Starlink 31786

operational
NORAD ID: 59771 Int'l Des: 2024-091 Owner: SPXS Country: US Constellation: starlink
LEOCIRCULAR

Starlink 31786について

説明を読み込み中...

リアルタイム位置

3D地球を読み込み中...

次回通過

高度履歴

Altitude vs Time

uPlot chart will show altitude changes over time

軌道要素

1 59771U 24091U 26062.17026949 .00000041 00000-0 13519-4 0 9997
2 59771 53.1617 57.3525 0001339 93.0859 267.0295 15.30187677102000
Epoch: Mar 3, 2026 • Age: 26 hours

現在のステータス

高度 476.9 km
速度 7.63 km/s
衛星直下点 -3.78°S, 141.74°W
打ち上げ日 May 14, 2024
運用期間 1.8 years
タイプ internet

技術仕様

分類 Payload
質量 730.00 kg
乾燥質量 700.00 kg
総質量 730.00 kg
長さ 0.30 m
直径 4.10 m
スパン 29.00 m
形状 Box + pan
製造者 SPXS
バスタイプ Starlink V2M
フェーズステータス In Orbit
所有者/国 SPXS/US

大規模コンステレーション

Loading constellations...